COSMOS 252 DEB, 15519

Orbit data source: Space-Track

COSMOS 252 DEB, 15519 is space debris in LEO originally from a launch on Fri, 01 Nov 1968 UTC launched from the Tyuratam Missile And Space Complex (TTMTR). Debris objects in space refer to the collection of defunct objects orbiting the Earth. Examples of debris include non-operational satellites, rocket bodies, and fragments generated from explosions, collisions, or faulty payload assembly.

Loading next visibility...
Identifier
15519, 1968-097EF
Orbit
LEO
Country
Flag of CISCIS
Related business
Manufacturer
Unknown
Mission
Spacecraft
Bus & Motor
Unknown
Mass
Unknown
Launch date (UTC)
1968-11-01 (57 years ago)
Launch vehicle
Unknown
Launch site
Tyuratam Missile And Space Complex (TTMTR)
Object type
Payload
Rocket body
Debris
Shape & HBR
Unknown shape, 0.1 m
Radar Cross Section
Small (<0.1 m²)

Expand to show TLE details & history
Last TLE update: 1 day ago

TLE from 1 day ago
0 COSMOS 252 DEB
1 15519U 68097EF  25342.42689684  .00001334  00000-0  63274-3 0  9990
2 15519  62.3791  38.7169 0868730 246.7133 104.0177 13.07200324794634
Epoch: 2025-12-08T10:14Z
TLE epoch observation values (Epoch: 2025-12-08T10:14:43.886Z)
Latitude
-0.00007°
Longitude
167.60791°
Altitude
1,448.021 km
Speed
7.038 km/s
True Right ascension
02h 34m 52s
True Declination
0° 00' 00"
Sunlit
Object was in full shadow at epoch
Visualization orbit readout
Latitude
Unknown
Longitude
Unknown
Altitude
Unknown
Speed
Unknown
Apparent Right ascension
Unknown
Apparent Declination
Unknown
Sunlit
N/A
Visualization observer readout
Local Sidereal Time
19:07:19
Azimuth
Unknown
Elevation
Unknown
Doppler factor
Unknown
Orbital elements
Apogee altitude
1,894.174 km
Perigee altitude
571.774 km
Semi-major axis
7,611.111 km
Eccentricity
0.08687
Inclination
62.3791°
RAAN
38.7169°
Arg. of periapsis
246.7133°
True anomaly
113.38661°
Mean anomaly
104.0177°
Eccentric anomaly
108.73152°
Mean motion
3.26867 °/min
Orbital period
110.14 mins
BSTAR
0.00063274
Loading maneuver chart data...
Computing Atmospheric mass density...

Documentation

Showing up to 5 results
|